Year,Month,Day,Hour,Minute,Value (Times are PST for temperature in C)
2011,05,19,00,00,6.80
2011,05,19,00,01,6.80
2011,05,19,00,02,6.80
2011,05,19,00,03,6.80
2011,05,19,00,04,6.70
2011,05,19,00,05,6.70
2011,05,19,00,06,6.70
2011,05,19,00,07,6.70
2011,05,19,00,08,6.70
2011,05,19,00,09,6.70
2011,05,19,00,10,6.70
2011,05,19,00,11,6.70
2011,05,19,00,12,6.70
2011,05,19,00,13,6.60
2011,05,19,00,14,6.60
2011,05,19,00,15,6.60
2011,05,19,00,16,6.60
2011,05,19,00,17,6.60
2011,05,19,00,18,6.60
2011,05,19,00,19,6.60
2011,05,19,00,20,6.60
2011,05,19,00,21,6.60
2011,05,19,00,22,6.60
2011,05,19,00,23,6.60
2011,05,19,00,24,6.50
2011,05,19,00,25,6.50
2011,05,19,00,26,6.50
2011,05,19,00,27,6.40
2011,05,19,00,28,6.40
2011,05,19,00,29,6.40
2011,05,19,00,30,6.40
2011,05,19,00,31,6.40
2011,05,19,00,32,6.40
2011,05,19,00,33,6.40
2011,05,19,00,34,6.40
2011,05,19,00,35,6.40
2011,05,19,00,36,6.40
2011,05,19,00,37,6.40
2011,05,19,00,38,6.40
2011,05,19,00,39,6.40
2011,05,19,00,40,6.40
2011,05,19,00,41,6.40
2011,05,19,00,42,6.40
2011,05,19,00,43,6.40
2011,05,19,00,44,6.40
2011,05,19,00,45,6.40
2011,05,19,00,46,6.40
2011,05,19,00,47,6.40
2011,05,19,00,48,6.40
2011,05,19,00,49,6.40
2011,05,19,00,50,6.40
2011,05,19,00,51,6.40
2011,05,19,00,52,6.30
2011,05,19,00,53,6.30
2011,05,19,00,54,6.30
2011,05,19,00,55,6.30
2011,05,19,00,56,6.30
2011,05,19,00,57,6.30
2011,05,19,00,58,6.30
2011,05,19,00,59,6.30
2011,05,19,01,00,6.30
2011,05,19,01,01,6.30
2011,05,19,01,02,6.30
2011,05,19,01,03,6.30
2011,05,19,01,04,6.30
2011,05,19,01,05,6.30
2011,05,19,01,06,6.30
2011,05,19,01,07,6.30
2011,05,19,01,08,6.30
2011,05,19,01,09,6.30
2011,05,19,01,10,6.30
2011,05,19,01,11,6.30
2011,05,19,01,12,6.30
2011,05,19,01,13,6.30
2011,05,19,01,14,6.30
2011,05,19,01,15,6.30
2011,05,19,01,16,6.30
2011,05,19,01,17,6.30
2011,05,19,01,18,6.20
2011,05,19,01,19,6.20
2011,05,19,01,20,6.20
2011,05,19,01,21,6.20
2011,05,19,01,22,6.20
2011,05,19,01,23,6.20
2011,05,19,01,24,6.20
2011,05,19,01,25,6.20
2011,05,19,01,26,6.20
2011,05,19,01,27,6.20
2011,05,19,01,28,6.20
2011,05,19,01,29,6.20
2011,05,19,01,30,6.20
2011,05,19,01,31,6.20
2011,05,19,01,32,6.20
2011,05,19,01,33,6.20
2011,05,19,01,34,6.20
2011,05,19,01,35,6.20
2011,05,19,01,36,6.20
2011,05,19,01,37,6.20
2011,05,19,01,38,6.20
2011,05,19,01,39,6.20
2011,05,19,01,40,6.20
2011,05,19,01,41,6.20
2011,05,19,01,42,6.20
2011,05,19,01,43,6.20
2011,05,19,01,44,6.20
2011,05,19,01,45,6.20
2011,05,19,01,46,6.20
2011,05,19,01,47,6.20
2011,05,19,01,48,6.20
2011,05,19,01,49,6.20
2011,05,19,01,50,6.20
2011,05,19,01,51,6.20
2011,05,19,01,52,6.20
2011,05,19,01,53,6.20
2011,05,19,01,54,6.20
2011,05,19,01,55,6.20
2011,05,19,01,56,6.20
2011,05,19,01,57,6.20
2011,05,19,01,58,6.20
2011,05,19,01,59,6.20
2011,05,19,02,00,6.20
2011,05,19,02,01,6.20
2011,05,19,02,02,6.20
2011,05,19,02,03,6.20
2011,05,19,02,04,6.20
2011,05,19,02,05,6.20
2011,05,19,02,06,6.20
2011,05,19,02,07,6.20
2011,05,19,02,08,6.10
2011,05,19,02,09,6.10
2011,05,19,02,10,6.10
2011,05,19,02,11,6.20
2011,05,19,02,12,6.20
2011,05,19,02,13,6.20
2011,05,19,02,14,6.20
2011,05,19,02,15,6.20
2011,05,19,02,16,6.20
2011,05,19,02,17,6.20
2011,05,19,02,18,6.20
2011,05,19,02,19,6.20
2011,05,19,02,20,6.20
2011,05,19,02,21,6.20
2011,05,19,02,22,6.10
2011,05,19,02,23,6.20
2011,05,19,02,24,6.20
2011,05,19,02,25,6.10
2011,05,19,02,26,6.20
2011,05,19,02,27,6.20
2011,05,19,02,28,6.20
2011,05,19,02,29,6.20
2011,05,19,02,30,6.20
2011,05,19,02,31,6.20
2011,05,19,02,32,6.20
2011,05,19,02,33,6.20
2011,05,19,02,34,6.20
2011,05,19,02,35,6.20
2011,05,19,02,36,6.10
2011,05,19,02,37,6.10
2011,05,19,02,38,6.10
2011,05,19,02,39,6.10
2011,05,19,02,40,6.10
2011,05,19,02,41,6.10
2011,05,19,02,42,6.10
2011,05,19,02,43,6.10
2011,05,19,02,44,6.10
2011,05,19,02,45,6.10
2011,05,19,02,46,6.10
2011,05,19,02,47,6.10
2011,05,19,02,48,6.10
2011,05,19,02,49,6.10
2011,05,19,02,50,6.10
2011,05,19,02,51,6.10
2011,05,19,02,52,6.10
2011,05,19,02,53,6.10
2011,05,19,02,54,6.20
2011,05,19,02,55,6.20
2011,05,19,02,56,6.20
2011,05,19,02,57,6.20
2011,05,19,02,58,6.20
2011,05,19,02,59,6.20
2011,05,19,03,00,6.10
2011,05,19,03,01,6.10
2011,05,19,03,02,6.10
2011,05,19,03,03,6.10
2011,05,19,03,04,6.10
2011,05,19,03,05,6.10
2011,05,19,03,06,6.10
2011,05,19,03,07,6.10
2011,05,19,03,08,6.10
2011,05,19,03,09,6.10
2011,05,19,03,10,6.10
2011,05,19,03,11,6.10
2011,05,19,03,12,6.10
2011,05,19,03,13,6.10
2011,05,19,03,14,6.10
2011,05,19,03,15,6.10
2011,05,19,03,16,6.00
2011,05,19,03,17,6.00
2011,05,19,03,18,6.10
2011,05,19,03,19,6.10
2011,05,19,03,20,6.10
2011,05,19,03,21,6.10
2011,05,19,03,22,6.10
2011,05,19,03,23,6.10
2011,05,19,03,24,6.10
2011,05,19,03,25,6.00
2011,05,19,03,26,6.00
2011,05,19,03,27,6.00
2011,05,19,03,28,6.00
2011,05,19,03,29,6.00
2011,05,19,03,30,5.90
2011,05,19,03,31,5.90
2011,05,19,03,32,5.90
2011,05,19,03,33,5.90
2011,05,19,03,34,5.90
2011,05,19,03,35,5.90
2011,05,19,03,36,5.90
2011,05,19,03,37,5.90
2011,05,19,03,38,5.90
2011,05,19,03,39,5.90
2011,05,19,03,40,5.90
2011,05,19,03,41,5.90
2011,05,19,03,42,5.90
2011,05,19,03,43,5.90
2011,05,19,03,44,5.90
2011,05,19,03,45,5.90
2011,05,19,03,46,5.90
2011,05,19,03,47,5.90
2011,05,19,03,48,5.80
2011,05,19,03,49,5.80
2011,05,19,03,50,5.80
2011,05,19,03,51,5.80
2011,05,19,03,52,5.80
2011,05,19,03,53,5.80
2011,05,19,03,54,5.80
2011,05,19,03,55,5.80
2011,05,19,03,56,5.80
2011,05,19,03,57,5.80
2011,05,19,03,58,5.80
2011,05,19,03,59,5.80
2011,05,19,04,00,5.80
2011,05,19,04,01,5.80
2011,05,19,04,02,5.80
2011,05,19,04,03,5.80
2011,05,19,04,04,5.80
2011,05,19,04,05,5.80
2011,05,19,04,06,5.80
2011,05,19,04,07,5.80
2011,05,19,04,08,5.80
2011,05,19,04,09,5.80
2011,05,19,04,10,5.80
2011,05,19,04,11,5.80
2011,05,19,04,12,5.80
2011,05,19,04,13,5.80
2011,05,19,04,14,5.80
2011,05,19,04,15,5.80
2011,05,19,04,16,5.70
2011,05,19,04,17,5.80
2011,05,19,04,18,5.80
2011,05,19,04,19,5.80
2011,05,19,04,20,5.80
2011,05,19,04,21,5.80
2011,05,19,04,22,5.80
2011,05,19,04,23,5.80
2011,05,19,04,24,5.70
2011,05,19,04,25,5.70
2011,05,19,04,26,5.70
2011,05,19,04,27,5.70
2011,05,19,04,28,5.70
2011,05,19,04,29,5.70
2011,05,19,04,30,5.70
2011,05,19,04,31,5.70
2011,05,19,04,32,5.70
2011,05,19,04,33,5.70
2011,05,19,04,34,5.70
2011,05,19,04,35,5.70
2011,05,19,04,36,5.70
2011,05,19,04,37,5.80
2011,05,19,04,38,5.80
2011,05,19,04,39,5.80
2011,05,19,04,40,5.70
2011,05,19,04,41,5.80
2011,05,19,04,42,5.80
2011,05,19,04,43,5.80
2011,05,19,04,44,5.80
2011,05,19,04,45,5.80
2011,05,19,04,46,5.80
2011,05,19,04,47,5.80
2011,05,19,04,48,5.80
2011,05,19,04,49,5.80
2011,05,19,04,50,5.80
2011,05,19,04,51,5.70
2011,05,19,04,52,5.70
2011,05,19,04,53,5.70
2011,05,19,04,54,5.70
2011,05,19,04,55,5.70
2011,05,19,04,56,5.70
2011,05,19,04,57,5.70
2011,05,19,04,58,5.70
2011,05,19,04,59,5.70
2011,05,19,05,00,5.70
2011,05,19,05,01,5.70
2011,05,19,05,02,5.70
2011,05,19,05,03,5.70
2011,05,19,05,04,5.70
2011,05,19,05,05,5.70
2011,05,19,05,06,5.70
2011,05,19,05,07,5.70
2011,05,19,05,08,5.70
2011,05,19,05,09,5.70
2011,05,19,05,10,5.70
2011,05,19,05,11,5.80
2011,05,19,05,12,5.80
2011,05,19,05,13,5.80
2011,05,19,05,14,5.80
2011,05,19,05,15,5.80
2011,05,19,05,16,5.80
2011,05,19,05,17,5.80
2011,05,19,05,18,5.80
2011,05,19,05,19,5.80
2011,05,19,05,20,5.80
2011,05,19,05,21,5.80
2011,05,19,05,22,5.80
2011,05,19,05,23,5.80
2011,05,19,05,24,5.80
2011,05,19,05,25,5.80
2011,05,19,05,26,5.80
2011,05,19,05,27,5.80
2011,05,19,05,28,5.90
2011,05,19,05,29,5.90
2011,05,19,05,30,6.00
2011,05,19,05,31,6.00
2011,05,19,05,32,6.00
2011,05,19,05,33,6.00
2011,05,19,05,34,6.00
2011,05,19,05,35,6.10
2011,05,19,05,36,6.10
2011,05,19,05,37,6.10
2011,05,19,05,38,6.10
2011,05,19,05,39,6.10
2011,05,19,05,40,6.10
2011,05,19,05,41,6.10
2011,05,19,05,42,6.10
2011,05,19,05,43,6.20
2011,05,19,05,44,6.20
2011,05,19,05,45,6.20
2011,05,19,05,46,6.20
2011,05,19,05,47,6.20
2011,05,19,05,48,6.20
2011,05,19,05,49,6.30
2011,05,19,05,50,6.30
2011,05,19,05,51,6.30
2011,05,19,05,52,6.30
2011,05,19,05,53,6.30
2011,05,19,05,54,6.30
2011,05,19,05,55,6.30
2011,05,19,05,56,6.30
2011,05,19,05,57,6.40
2011,05,19,05,58,6.40
2011,05,19,05,59,6.50
2011,05,19,06,00,6.50
2011,05,19,06,01,6.70
2011,05,19,06,02,6.80
2011,05,19,06,03,6.80
2011,05,19,06,04,6.90
2011,05,19,06,05,6.90
2011,05,19,06,06,7.00
2011,05,19,06,07,7.00
2011,05,19,06,08,6.90
2011,05,19,06,09,6.90
2011,05,19,06,10,6.80
2011,05,19,06,11,6.80
2011,05,19,06,12,6.80
2011,05,19,06,13,6.80
2011,05,19,06,14,6.80
2011,05,19,06,15,6.80
2011,05,19,06,16,6.80
2011,05,19,06,17,6.80
2011,05,19,06,18,6.80
2011,05,19,06,19,6.80
2011,05,19,06,20,6.80
2011,05,19,06,21,6.80
2011,05,19,06,22,6.80
2011,05,19,06,23,6.70
2011,05,19,06,24,6.70
2011,05,19,06,25,6.70
2011,05,19,06,26,6.70
2011,05,19,06,27,6.70
2011,05,19,06,28,6.70
2011,05,19,06,29,6.70
2011,05,19,06,30,6.80
2011,05,19,06,31,6.80
2011,05,19,06,32,6.80
2011,05,19,06,33,6.80
2011,05,19,06,34,6.80
2011,05,19,06,35,6.80
2011,05,19,06,36,6.80
2011,05,19,06,37,6.70
2011,05,19,06,38,6.70
2011,05,19,06,39,6.70
2011,05,19,06,40,6.80
2011,05,19,06,41,6.80
2011,05,19,06,42,6.80
2011,05,19,06,43,6.80
2011,05,19,06,44,6.90
2011,05,19,06,45,6.90
2011,05,19,06,46,6.90
2011,05,19,06,47,7.00
2011,05,19,06,48,7.00
2011,05,19,06,49,7.00
2011,05,19,06,50,7.00
2011,05,19,06,51,7.00
2011,05,19,06,52,7.00
2011,05,19,06,53,7.00
2011,05,19,06,54,7.00
2011,05,19,06,55,7.00
2011,05,19,06,56,7.00
2011,05,19,06,57,7.10
2011,05,19,06,58,7.10
2011,05,19,06,59,7.10
2011,05,19,07,00,7.20
2011,05,19,07,01,7.20
2011,05,19,07,02,7.20
2011,05,19,07,03,7.20
2011,05,19,07,04,7.20
2011,05,19,07,05,7.20
2011,05,19,07,06,7.30
2011,05,19,07,07,7.40
2011,05,19,07,08,7.50
2011,05,19,07,09,7.60
2011,05,19,07,10,7.70
2011,05,19,07,11,7.70
2011,05,19,07,12,7.80
2011,05,19,07,13,7.80
2011,05,19,07,14,7.90
2011,05,19,07,15,8.10
2011,05,19,07,16,8.20
2011,05,19,07,17,8.30
2011,05,19,07,18,8.50
2011,05,19,07,19,8.60
2011,05,19,07,20,8.70
2011,05,19,07,21,8.80
2011,05,19,07,22,9.00
2011,05,19,07,23,9.00
2011,05,19,07,24,9.10
2011,05,19,07,25,9.20
2011,05,19,07,26,9.30
2011,05,19,07,27,9.40
2011,05,19,07,28,9.50
2011,05,19,07,29,9.60
2011,05,19,07,30,9.60
2011,05,19,07,31,9.60
2011,05,19,07,32,9.60
2011,05,19,07,33,9.70
2011,05,19,07,34,9.70
2011,05,19,07,35,9.70
2011,05,19,07,36,9.70
2011,05,19,07,37,9.80
2011,05,19,07,38,9.80
2011,05,19,07,39,9.90
2011,05,19,07,40,9.90
2011,05,19,07,41,10.00
2011,05,19,07,42,10.00
2011,05,19,07,43,10.10
2011,05,19,07,44,10.10
2011,05,19,07,45,10.20
2011,05,19,07,46,10.20
2011,05,19,07,47,10.20
2011,05,19,07,48,10.30
2011,05,19,07,49,10.30
2011,05,19,07,50,10.40
2011,05,19,07,51,10.40
2011,05,19,07,52,10.50
2011,05,19,07,53,10.50
2011,05,19,07,54,10.60
2011,05,19,07,55,10.70
2011,05,19,07,56,10.70
2011,05,19,07,57,10.80
2011,05,19,07,58,10.80
2011,05,19,07,59,10.80
2011,05,19,08,00,10.90
2011,05,19,08,01,10.90
2011,05,19,08,02,11.00
2011,05,19,08,03,11.00
2011,05,19,08,04,11.00
2011,05,19,08,05,11.00
2011,05,19,08,06,11.00
2011,05,19,08,07,11.00
2011,05,19,08,08,11.00
2011,05,19,08,09,11.00
2011,05,19,08,10,11.00
2011,05,19,08,11,11.00
2011,05,19,08,12,11.00
2011,05,19,08,13,11.10
2011,05,19,08,14,11.10
2011,05,19,08,15,11.10
2011,05,19,08,16,11.10
2011,05,19,08,17,11.20
2011,05,19,08,18,11.20
2011,05,19,08,19,11.20
2011,05,19,08,20,11.20
2011,05,19,08,21,11.20
2011,05,19,08,22,11.20
2011,05,19,08,23,11.30
2011,05,19,08,24,11.30
2011,05,19,08,25,11.30
2011,05,19,08,26,11.30
2011,05,19,08,27,11.30
2011,05,19,08,28,11.30
2011,05,19,08,29,11.30
2011,05,19,08,30,11.30
2011,05,19,08,31,11.40
2011,05,19,08,32,11.40
2011,05,19,08,33,11.40
2011,05,19,08,34,11.40
2011,05,19,08,35,11.40
2011,05,19,08,36,11.40
2011,05,19,08,37,11.40
2011,05,19,08,38,11.40
2011,05,19,08,39,11.40
2011,05,19,08,40,11.40
2011,05,19,08,41,11.40
2011,05,19,08,42,11.40
2011,05,19,08,43,11.40
2011,05,19,08,44,11.40
2011,05,19,08,45,11.40
2011,05,19,08,46,11.40
2011,05,19,08,47,11.50
2011,05,19,08,48,11.50
2011,05,19,08,49,11.60
2011,05,19,08,50,11.60
2011,05,19,08,51,11.70
2011,05,19,08,52,11.70
2011,05,19,08,53,11.70
2011,05,19,08,54,11.70
2011,05,19,08,55,11.70
2011,05,19,08,56,11.80
2011,05,19,08,57,11.80
2011,05,19,08,58,11.80
2011,05,19,08,59,11.80
2011,05,19,09,00,11.90
2011,05,19,09,01,11.90
2011,05,19,09,02,11.90
2011,05,19,09,03,12.00
2011,05,19,09,04,12.00
2011,05,19,09,05,12.10
2011,05,19,09,06,12.10
2011,05,19,09,07,12.20
2011,05,19,09,08,12.20
2011,05,19,09,09,12.20
2011,05,19,09,10,12.20
2011,05,19,09,11,12.30
2011,05,19,09,12,12.30
2011,05,19,09,13,12.30
2011,05,19,09,14,12.30
2011,05,19,09,15,12.40
2011,05,19,09,16,12.40
2011,05,19,09,17,12.40
2011,05,19,09,18,12.40
2011,05,19,09,19,12.40
2011,05,19,09,20,12.40
2011,05,19,09,21,12.30
2011,05,19,09,22,12.30
2011,05,19,09,23,12.30
2011,05,19,09,24,12.40
2011,05,19,09,25,12.40
2011,05,19,09,26,12.40
2011,05,19,09,27,12.40
2011,05,19,09,28,12.40
2011,05,19,09,29,12.30
2011,05,19,09,30,12.30
2011,05,19,09,31,12.30
2011,05,19,09,32,12.40
2011,05,19,09,33,12.40
2011,05,19,09,34,12.50
2011,05,19,09,35,12.50
2011,05,19,09,36,12.40
2011,05,19,09,37,12.40
2011,05,19,09,38,12.40
2011,05,19,09,39,12.40
2011,05,19,09,40,12.40
2011,05,19,09,41,12.40
2011,05,19,09,42,12.50
2011,05,19,09,43,12.50
2011,05,19,09,44,12.60
2011,05,19,09,45,12.60
2011,05,19,09,46,12.70
2011,05,19,09,47,12.70
2011,05,19,09,48,12.70
2011,05,19,09,49,12.70
2011,05,19,09,50,12.70
2011,05,19,09,51,12.80
2011,05,19,09,52,12.80
2011,05,19,09,53,12.90
2011,05,19,09,54,12.90
2011,05,19,09,55,12.90
2011,05,19,09,56,12.90
2011,05,19,09,57,12.90
2011,05,19,09,58,13.00
2011,05,19,09,59,13.00
2011,05,19,10,00,12.90
2011,05,19,10,01,12.90
2011,05,19,10,02,13.00
2011,05,19,10,03,13.00
2011,05,19,10,04,13.10
2011,05,19,10,05,13.20
2011,05,19,10,06,13.20
2011,05,19,10,07,13.20
2011,05,19,10,08,13.20
2011,05,19,10,09,13.10
2011,05,19,10,10,13.00
2011,05,19,10,11,12.90
2011,05,19,10,12,12.80
2011,05,19,10,13,12.80
2011,05,19,10,14,12.80
2011,05,19,10,15,12.80
2011,05,19,10,16,12.70
2011,05,19,10,17,12.70
2011,05,19,10,18,12.70
2011,05,19,10,19,12.70
2011,05,19,10,20,12.70
2011,05,19,10,21,12.70
2011,05,19,10,22,12.70
2011,05,19,10,23,12.70
2011,05,19,10,24,12.80
2011,05,19,10,25,12.80
2011,05,19,10,26,12.80
2011,05,19,10,27,12.80
2011,05,19,10,28,12.80
2011,05,19,10,29,12.80
2011,05,19,10,30,12.80
2011,05,19,10,31,12.70
2011,05,19,10,32,12.70
2011,05,19,10,33,12.70
2011,05,19,10,34,12.70
2011,05,19,10,35,12.80
2011,05,19,10,36,12.80
2011,05,19,10,37,12.90
2011,05,19,10,38,13.00
2011,05,19,10,39,13.10
2011,05,19,10,40,13.10
2011,05,19,10,41,13.00
2011,05,19,10,42,12.90
2011,05,19,10,43,12.80
2011,05,19,10,44,12.70
2011,05,19,10,45,12.80
2011,05,19,10,46,12.80
2011,05,19,10,47,12.80
2011,05,19,10,48,12.80
2011,05,19,10,49,12.80
2011,05,19,10,50,12.80
2011,05,19,10,51,12.80
2011,05,19,10,52,12.80
2011,05,19,10,53,12.90
2011,05,19,10,54,12.90
2011,05,19,10,55,13.00
2011,05,19,10,56,13.00
2011,05,19,10,57,13.10
2011,05,19,10,58,13.10
2011,05,19,10,59,13.10
2011,05,19,11,00,13.10
2011,05,19,11,01,13.20
2011,05,19,11,02,13.30
2011,05,19,11,03,13.30
2011,05,19,11,04,13.40
2011,05,19,11,05,13.40
2011,05,19,11,06,13.40
2011,05,19,11,07,13.50
2011,05,19,11,08,13.50
2011,05,19,11,09,13.50
2011,05,19,11,10,13.60
2011,05,19,11,11,13.60
2011,05,19,11,12,13.60
2011,05,19,11,13,13.60
2011,05,19,11,14,13.70
2011,05,19,11,15,13.80
2011,05,19,11,16,13.90
2011,05,19,11,17,14.00
2011,05,19,11,18,14.10
2011,05,19,11,19,14.20
2011,05,19,11,20,14.20
2011,05,19,11,21,14.30
2011,05,19,11,22,14.40
2011,05,19,11,23,14.50
2011,05,19,11,24,14.50
2011,05,19,11,25,14.50
2011,05,19,11,26,14.50
2011,05,19,11,27,14.40
2011,05,19,11,28,14.30
2011,05,19,11,29,14.10
2011,05,19,11,30,14.00
2011,05,19,11,31,13.90
2011,05,19,11,32,14.00
2011,05,19,11,33,14.00
2011,05,19,11,34,14.00
2011,05,19,11,35,13.90
2011,05,19,11,36,13.90
2011,05,19,11,37,14.00
2011,05,19,11,38,14.10
2011,05,19,11,39,14.20
2011,05,19,11,40,14.20
2011,05,19,11,41,14.40
2011,05,19,11,42,14.50
2011,05,19,11,43,14.60
2011,05,19,11,44,14.60
2011,05,19,11,45,14.60
2011,05,19,11,46,14.60
2011,05,19,11,47,14.50
2011,05,19,11,48,14.50
2011,05,19,11,49,14.40
2011,05,19,11,50,14.40
2011,05,19,11,51,14.40
2011,05,19,11,52,14.30
2011,05,19,11,53,14.30
2011,05,19,11,54,14.40
2011,05,19,11,55,14.40
2011,05,19,11,56,14.50
2011,05,19,11,57,14.60
2011,05,19,11,58,14.70
2011,05,19,11,59,14.70
2011,05,19,12,00,14.70
2011,05,19,12,01,14.80
2011,05,19,12,02,14.70
2011,05,19,12,03,14.60
2011,05,19,12,04,14.60
2011,05,19,12,05,14.70
2011,05,19,12,06,14.60
2011,05,19,12,07,14.60
2011,05,19,12,08,14.60
2011,05,19,12,09,14.50
2011,05,19,12,10,14.40
2011,05,19,12,11,14.40
2011,05,19,12,12,14.40
2011,05,19,12,13,14.50
2011,05,19,12,14,14.60
2011,05,19,12,15,14.70
2011,05,19,12,16,14.80
2011,05,19,12,17,15.00
2011,05,19,12,18,15.00
2011,05,19,12,19,15.00
2011,05,19,12,20,15.00
2011,05,19,12,21,15.00
2011,05,19,12,22,15.00
2011,05,19,12,23,14.90
2011,05,19,12,24,14.80
2011,05,19,12,25,14.70
2011,05,19,12,26,14.70
2011,05,19,12,27,14.80
2011,05,19,12,28,14.80
2011,05,19,12,29,14.80
2011,05,19,12,30,14.90
2011,05,19,12,31,15.00
2011,05,19,12,32,15.00
2011,05,19,12,33,15.00
2011,05,19,12,34,15.00
2011,05,19,12,35,15.20
2011,05,19,12,36,15.30
2011,05,19,12,37,15.40
2011,05,19,12,38,15.50
2011,05,19,12,39,15.50
2011,05,19,12,40,15.50
2011,05,19,12,41,15.50
2011,05,19,12,42,15.40
2011,05,19,12,43,15.30
2011,05,19,12,44,15.20
2011,05,19,12,45,15.10
2011,05,19,12,46,15.00
2011,05,19,12,47,15.00
2011,05,19,12,48,14.90
2011,05,19,12,49,15.00
2011,05,19,12,50,15.00
2011,05,19,12,51,15.00
2011,05,19,12,52,15.00
2011,05,19,12,53,15.00
2011,05,19,12,54,15.10
2011,05,19,12,55,15.00
2011,05,19,12,56,15.00
2011,05,19,12,57,15.10
2011,05,19,12,58,15.10
2011,05,19,12,59,15.10
2011,05,19,13,00,15.10
2011,05,19,13,01,15.20
2011,05,19,13,02,15.20
2011,05,19,13,03,15.30
2011,05,19,13,04,15.40
2011,05,19,13,05,15.40
2011,05,19,13,06,15.30
2011,05,19,13,07,15.20
2011,05,19,13,08,15.20
2011,05,19,13,09,15.10
2011,05,19,13,10,15.20
2011,05,19,13,11,15.20
2011,05,19,13,12,15.20
2011,05,19,13,13,15.20
2011,05,19,13,14,15.10
2011,05,19,13,15,15.10
2011,05,19,13,16,15.10
2011,05,19,13,17,15.10
2011,05,19,13,18,15.10
2011,05,19,13,19,15.20
2011,05,19,13,20,15.20
2011,05,19,13,21,15.20
2011,05,19,13,22,15.30
2011,05,19,13,23,15.20
2011,05,19,13,24,15.20
2011,05,19,13,25,15.20
2011,05,19,13,26,15.20
2011,05,19,13,27,15.30
2011,05,19,13,28,15.40
2011,05,19,13,29,15.50
2011,05,19,13,30,15.60
2011,05,19,13,31,15.60
2011,05,19,13,32,15.60
2011,05,19,13,33,15.60
2011,05,19,13,34,15.70
2011,05,19,13,35,15.80
2011,05,19,13,36,15.80
2011,05,19,13,37,15.90
2011,05,19,13,38,15.90
2011,05,19,13,39,16.00
2011,05,19,13,40,16.00
2011,05,19,13,41,16.00
2011,05,19,13,42,16.00
2011,05,19,13,43,16.00
2011,05,19,13,44,16.00
2011,05,19,13,45,15.90
2011,05,19,13,46,16.00
2011,05,19,13,47,16.10
2011,05,19,13,48,16.20
2011,05,19,13,49,16.30
2011,05,19,13,50,16.40
2011,05,19,13,51,16.40
2011,05,19,13,52,16.50
2011,05,19,13,53,16.60
2011,05,19,13,54,16.70
2011,05,19,13,55,16.70
2011,05,19,13,56,16.80
2011,05,19,13,57,16.80
2011,05,19,13,58,16.80
2011,05,19,13,59,16.90
2011,05,19,14,00,16.80
2011,05,19,14,01,16.80
2011,05,19,14,02,16.90
2011,05,19,14,03,16.90
2011,05,19,14,04,16.90
2011,05,19,14,05,16.90
2011,05,19,14,06,16.80
2011,05,19,14,07,16.70
2011,05,19,14,08,16.70
2011,05,19,14,09,16.70
2011,05,19,14,10,16.70
2011,05,19,14,11,16.60
2011,05,19,14,12,16.60
2011,05,19,14,13,16.60
2011,05,19,14,14,16.80
2011,05,19,14,15,16.80
2011,05,19,14,16,16.70
2011,05,19,14,17,16.60
2011,05,19,14,18,16.60
2011,05,19,14,19,16.50
2011,05,19,14,20,16.50
2011,05,19,14,21,16.40
2011,05,19,14,22,16.40
2011,05,19,14,23,16.20
2011,05,19,14,24,16.20
2011,05,19,14,25,16.30
2011,05,19,14,26,16.40
2011,05,19,14,27,16.40
2011,05,19,14,28,16.40
2011,05,19,14,29,16.30
2011,05,19,14,30,16.30
2011,05,19,14,31,16.20
2011,05,19,14,32,16.20
2011,05,19,14,33,16.30
2011,05,19,14,34,16.40
2011,05,19,14,35,16.40
2011,05,19,14,36,16.50
2011,05,19,14,37,16.50
2011,05,19,14,38,16.60
2011,05,19,14,39,16.60
2011,05,19,14,40,16.70
2011,05,19,14,41,16.70
2011,05,19,14,42,16.70
2011,05,19,14,43,16.70
2011,05,19,14,44,16.70
2011,05,19,14,45,16.70
2011,05,19,14,46,16.70
2011,05,19,14,47,16.70
2011,05,19,14,48,16.70
2011,05,19,14,49,16.80
2011,05,19,14,50,16.90
2011,05,19,14,51,17.00
2011,05,19,14,52,17.20
2011,05,19,14,53,17.30
2011,05,19,14,54,17.40
2011,05,19,14,55,17.50
2011,05,19,14,56,17.40
2011,05,19,14,57,17.40
2011,05,19,14,58,17.40
2011,05,19,14,59,17.40
2011,05,19,15,00,17.40
2011,05,19,15,01,17.40
2011,05,19,15,02,17.40
2011,05,19,15,03,17.50
2011,05,19,15,04,17.60
2011,05,19,15,05,17.60
2011,05,19,15,06,17.70
2011,05,19,15,07,17.80
2011,05,19,15,08,17.90
2011,05,19,15,09,17.90
2011,05,19,15,10,18.00
2011,05,19,15,11,18.10
2011,05,19,15,12,18.20
2011,05,19,15,13,18.20
2011,05,19,15,14,18.30
2011,05,19,15,15,18.30
2011,05,19,15,16,18.20
2011,05,19,15,17,18.10
2011,05,19,15,18,18.00
2011,05,19,15,19,17.90
2011,05,19,15,20,17.80
2011,05,19,15,21,17.70
2011,05,19,15,22,17.70
2011,05,19,15,23,17.70
2011,05,19,15,24,17.80
2011,05,19,15,25,17.90
2011,05,19,15,26,18.00
2011,05,19,15,27,18.10
2011,05,19,15,28,18.10
2011,05,19,15,29,18.10
2011,05,19,15,30,18.20
2011,05,19,15,31,18.20
2011,05,19,15,32,18.30
2011,05,19,15,33,18.40
2011,05,19,15,34,18.50
2011,05,19,15,35,18.60
2011,05,19,15,36,18.60
2011,05,19,15,37,18.60
2011,05,19,15,38,18.60
2011,05,19,15,39,18.60
2011,05,19,15,40,18.60
2011,05,19,15,41,18.60
2011,05,19,15,42,18.60
2011,05,19,15,43,18.60
2011,05,19,15,44,18.60
2011,05,19,15,45,18.60
2011,05,19,15,46,18.70
2011,05,19,15,47,18.80
2011,05,19,15,48,18.90
2011,05,19,15,49,18.90
2011,05,19,15,50,19.00
2011,05,19,15,51,19.10
2011,05,19,15,52,19.10
2011,05,19,15,53,19.20
2011,05,19,15,54,19.00
2011,05,19,15,55,19.00
2011,05,19,15,56,18.90
2011,05,19,15,57,18.90
2011,05,19,15,58,18.90
2011,05,19,15,59,18.80
2011,05,19,16,00,18.70
2011,05,19,16,01,18.60
2011,05,19,16,02,18.50
2011,05,19,16,03,18.40
2011,05,19,16,04,18.30
2011,05,19,16,05,18.20
2011,05,19,16,06,18.10
2011,05,19,16,07,18.10
2011,05,19,16,08,18.00
2011,05,19,16,09,17.90
2011,05,19,16,10,17.80
2011,05,19,16,11,17.90
2011,05,19,16,12,18.00
2011,05,19,16,13,18.10
2011,05,19,16,14,18.20
2011,05,19,16,15,18.30
2011,05,19,16,16,18.30
2011,05,19,16,17,18.40
2011,05,19,16,18,18.40
2011,05,19,16,19,18.40
2011,05,19,16,20,18.50
2011,05,19,16,21,18.50
2011,05,19,16,22,18.50
2011,05,19,16,23,18.60
2011,05,19,16,24,18.60
2011,05,19,16,25,18.70
2011,05,19,16,26,18.80
2011,05,19,16,27,18.80
2011,05,19,16,28,18.80
2011,05,19,16,29,18.90
2011,05,19,16,30,19.00
2011,05,19,16,31,19.00
2011,05,19,16,32,19.00
2011,05,19,16,33,18.90
2011,05,19,16,34,18.90
2011,05,19,16,35,18.80
2011,05,19,16,36,18.80
2011,05,19,16,37,18.80
2011,05,19,16,38,18.80
2011,05,19,16,39,18.80
2011,05,19,16,40,18.90
2011,05,19,16,41,19.00
2011,05,19,16,42,19.10
2011,05,19,16,43,19.20
2011,05,19,16,44,19.30
2011,05,19,16,45,19.30
2011,05,19,16,46,19.30
2011,05,19,16,47,19.30
2011,05,19,16,48,19.30
2011,05,19,16,49,19.40
2011,05,19,16,50,19.40
2011,05,19,16,51,19.40
2011,05,19,16,52,19.40
2011,05,19,16,53,19.50
2011,05,19,16,54,19.40
2011,05,19,16,55,19.40
2011,05,19,16,56,19.40
2011,05,19,16,57,19.40
2011,05,19,16,58,19.50
2011,05,19,16,59,19.50
2011,05,19,17,00,19.60
2011,05,19,17,01,19.60
2011,05,19,17,02,19.70
2011,05,19,17,03,19.70
2011,05,19,17,04,19.80
2011,05,19,17,05,19.80
2011,05,19,17,06,19.80
2011,05,19,17,07,19.80
2011,05,19,17,08,19.80
2011,05,19,17,09,19.80
2011,05,19,17,10,19.80
2011,05,19,17,11,19.80
2011,05,19,17,12,19.80
2011,05,19,17,13,19.80
2011,05,19,17,14,19.80
2011,05,19,17,15,19.80
2011,05,19,17,16,19.80
2011,05,19,17,17,19.80
2011,05,19,17,18,19.70
2011,05,19,17,19,19.60
2011,05,19,17,20,19.40
2011,05,19,17,21,19.30
2011,05,19,17,22,19.20
2011,05,19,17,23,19.20
2011,05,19,17,24,19.10
2011,05,19,17,25,19.10
2011,05,19,17,26,19.00
2011,05,19,17,27,18.90
2011,05,19,17,28,18.90
2011,05,19,17,29,18.80
2011,05,19,17,30,18.70
2011,05,19,17,31,18.70
2011,05,19,17,32,18.70
2011,05,19,17,33,18.70
2011,05,19,17,34,18.60
2011,05,19,17,35,18.60
2011,05,19,17,36,18.60
2011,05,19,17,37,18.60
2011,05,19,17,38,18.50
2011,05,19,17,39,18.50